Location: Unspecified
(0.0000°N, 0.0000°E)
Time: 15:43:46
(UTC+00:00)

Tiros 1 - Pass Details

Date: 25 November 2019
Orbit: 630 x 664 km, 48.4° (Epoch: 08 July)

Event Time Altitude Azimuth Distance (km) Brightness Sun altitude
Rises 19:44:50 0° 341° (NNW) 2,926 - -27.4°
Reaches altitude 10° 19:47:27 10° 354° (N) 2,026 - -28.0°
Maximum altitude 19:51:21 26° 51° (NE) 1,264 - -28.9°
Drops below altitude 10° 19:55:18 10° 108° (ESE) 2,052 - -29.8°
Sets 19:57:57 0° 120° (ESE) 2,971 - -30.4°
